Time,TemperatureF,DewpointF,PressureIn,WindDirection,WindDirectionDegrees,WindSpeedMPH,WindSpeedGustMPH,Humidity,HourlyPrecipIn,Conditions,Clouds,dailyrainin,SoftwareType,DateUTC
2013-06-28 00:02:00,70.7,59.6,29.81,WSW,250,6.0,6.0,68,0.00,,,0.00,Wunderground v.1.15,2013-06-28 05:02:00,
2013-06-28 00:08:00,70.3,59.2,29.82,WSW,250,4.0,6.0,68,0.00,,,0.00,Wunderground v.1.15,2013-06-28 05:08:00,
2013-06-28 00:10:00,69.9,58.9,29.82,WSW,248,3.0,-999.0,68,0.00,,,0.00,Wunderground v.1.15,2013-06-28 05:10:00,
2013-06-28 00:15:00,69.3,58.7,29.82,WSW,248,2.0,-999.0,69,0.00,,,0.00,Wunderground v.1.15,2013-06-28 05:15:00,
2013-06-28 00:20:00,69.0,58.4,29.82,WSW,248,2.0,-999.0,69,0.00,,,0.00,Wunderground v.1.15,2013-06-28 05:20:00,
2013-06-28 00:25:00,68.6,58.4,29.82,WSW,248,1.0,-999.0,70,0.00,,,0.00,Wunderground v.1.15,2013-06-28 05:25:00,
2013-06-28 00:30:00,68.3,58.1,29.81,N/A,-737280,0.0,-999.0,70,0.00,,,0.00,Wunderground v.1.15,2013-06-28 05:30:00,
2013-06-28 00:35:00,67.8,57.7,29.81,N/A,-737280,0.0,-999.0,70,0.00,,,0.00,Wunderground v.1.15,2013-06-28 05:35:00,
2013-06-28 00:40:00,67.4,57.7,29.82,N/A,-737280,0.0,-999.0,71,0.00,,,0.00,Wunderground v.1.15,2013-06-28 05:40:00,
2013-06-28 00:45:00,67.3,57.6,29.81,WSW,248,2.0,-999.0,71,0.00,,,0.00,Wunderground v.1.15,2013-06-28 05:45:00,
2013-06-28 00:50:00,67.4,57.7,29.81,WSW,248,4.0,-999.0,71,0.00,,,0.00,Wunderground v.1.15,2013-06-28 05:50:00,
2013-06-28 00:55:00,68.1,57.5,29.81,WSW,248,4.0,-999.0,69,0.00,,,0.00,Wunderground v.1.15,2013-06-28 05:55:00,
2013-06-28 01:00:00,67.9,57.4,29.81,WSW,248,3.0,-999.0,69,0.00,,,0.00,Wunderground v.1.15,2013-06-28 06:00:00,
2013-06-28 01:05:00,67.2,57.1,29.81,WSW,248,3.0,-999.0,70,0.00,,,0.00,Wunderground v.1.15,2013-06-28 06:05:00,
2013-06-28 01:10:00,67.4,57.3,29.81,WSW,248,3.0,-999.0,70,0.00,,,0.00,Wunderground v.1.15,2013-06-28 06:10:00,
2013-06-28 01:15:00,67.4,57.3,29.82,WSW,248,3.0,-999.0,70,0.00,,,0.00,Wunderground v.1.15,2013-06-28 06:15:00,
2013-06-28 01:20:00,67.2,57.1,29.82,WSW,248,4.0,-999.0,70,0.00,,,0.00,Wunderground v.1.15,2013-06-28 06:20:00,
2013-06-28 01:25:00,67.4,57.3,29.82,WSW,248,5.0,-999.0,70,0.00,,,0.00,Wunderground v.1.15,2013-06-28 06:25:00,
2013-06-28 01:30:00,67.7,57.2,29.82,WSW,248,5.0,-999.0,69,0.00,,,0.00,Wunderground v.1.15,2013-06-28 06:30:00,
2013-06-28 01:35:00,67.7,56.8,29.82,WSW,248,4.0,-999.0,68,0.00,,,0.00,Wunderground v.1.15,2013-06-28 06:35:00,
2013-06-28 01:40:00,67.7,57.2,29.82,WSW,248,5.0,-999.0,69,0.00,,,0.00,Wunderground v.1.15,2013-06-28 06:40:00,
2013-06-28 01:45:00,67.9,56.9,29.82,WSW,248,6.0,-999.0,68,0.00,,,0.00,Wunderground v.1.15,2013-06-28 06:45:00,
2013-06-28 01:50:00,68.2,56.8,29.82,WNW,293,6.0,-999.0,67,0.00,,,0.00,Wunderground v.1.15,2013-06-28 06:50:00,
2013-06-28 01:55:00,68.3,56.5,29.82,WNW,293,6.0,-999.0,66,0.00,,,0.00,Wunderground v.1.15,2013-06-28 06:55:00,
2013-06-28 02:00:00,68.5,56.3,29.82,WNW,293,6.0,-999.0,65,0.00,,,0.00,Wunderground v.1.15,2013-06-28 07:00:00,
2013-06-28 02:05:00,68.8,56.1,29.82,WNW,293,6.0,-999.0,64,0.00,,,0.00,Wunderground v.1.15,2013-06-28 07:05:00,
2013-06-28 02:10:00,69.0,56.3,29.82,WNW,293,6.0,-999.0,64,0.00,,,0.00,Wunderground v.1.15,2013-06-28 07:10:00,
2013-06-28 02:15:00,68.9,56.2,29.82,WNW,293,6.0,-999.0,64,0.00,,,0.00,Wunderground v.1.15,2013-06-28 07:15:00,
2013-06-28 02:20:00,69.0,56.3,29.82,WNW,293,6.0,-999.0,64,0.00,,,0.00,Wunderground v.1.15,2013-06-28 07:20:00,
2013-06-28 02:25:00,68.8,56.1,29.83,NW,315,6.0,-999.0,64,0.00,,,0.00,Wunderground v.1.15,2013-06-28 07:25:00,
2013-06-28 02:30:00,68.9,56.2,29.83,NW,315,7.0,-999.0,64,0.00,,,0.00,Wunderground v.1.15,2013-06-28 07:30:00,
2013-06-28 02:35:00,68.7,56.0,29.83,NW,315,6.0,-999.0,64,0.00,,,0.00,Wunderground v.1.15,2013-06-28 07:35:00,
2013-06-28 02:40:00,68.5,55.8,29.82,NW,315,7.0,-999.0,64,0.00,,,0.00,Wunderground v.1.15,2013-06-28 07:40:00,
2013-06-28 02:45:00,68.4,55.7,29.82,NW,315,6.0,-999.0,64,0.00,,,0.00,Wunderground v.1.15,2013-06-28 07:45:00,
2013-06-28 02:50:00,68.3,55.6,29.82,NW,315,7.0,-999.0,64,0.00,,,0.00,Wunderground v.1.15,2013-06-28 07:50:00,
2013-06-28 02:55:00,68.1,55.9,29.82,NW,315,7.0,-999.0,65,0.00,,,0.00,Wunderground v.1.15,2013-06-28 07:55:00,
2013-06-28 03:00:00,67.9,55.7,29.82,NW,315,6.0,-999.0,65,0.00,,,0.00,Wunderground v.1.15,2013-06-28 08:00:00,
2013-06-28 03:05:00,67.7,55.5,29.82,NW,315,6.0,-999.0,65,0.00,,,0.00,Wunderground v.1.15,2013-06-28 08:05:00,
2013-06-28 03:10:00,67.6,55.4,29.82,NW,315,6.0,-999.0,65,0.00,,,0.00,Wunderground v.1.15,2013-06-28 08:10:00,
2013-06-28 03:15:00,67.5,55.3,29.82,NW,315,6.0,-999.0,65,0.00,,,0.00,Wunderground v.1.15,2013-06-28 08:15:00,
2013-06-28 03:20:00,67.4,55.2,29.82,NW,315,6.0,-999.0,65,0.00,,,0.00,Wunderground v.1.15,2013-06-28 08:20:00,
2013-06-28 03:25:00,67.4,55.2,29.82,NW,315,6.0,-999.0,65,0.00,,,0.00,Wunderground v.1.15,2013-06-28 08:25:00,
2013-06-28 03:30:00,67.1,54.9,29.82,NW,315,6.0,-999.0,65,0.00,,,0.00,Wunderground v.1.15,2013-06-28 08:30:00,
2013-06-28 03:35:00,66.8,55.1,29.82,NW,315,6.0,-999.0,66,0.00,,,0.00,Wunderground v.1.15,2013-06-28 08:35:00,
2013-06-28 03:40:00,66.4,55.1,29.83,NW,315,6.0,-999.0,67,0.00,,,0.00,Wunderground v.1.15,2013-06-28 08:40:00,
2013-06-28 03:45:00,66.0,55.1,29.82,NW,315,5.0,-999.0,68,0.00,,,0.00,Wunderground v.1.15,2013-06-28 08:45:00,
2013-06-28 03:50:00,65.9,55.0,29.82,NW,315,5.0,-999.0,68,0.00,,,0.00,Wunderground v.1.15,2013-06-28 08:50:00,
2013-06-28 03:55:00,65.9,55.0,29.82,NW,315,5.0,-999.0,68,0.00,,,0.00,Wunderground v.1.15,2013-06-28 08:55:00,
2013-06-28 04:00:00,65.7,55.2,29.82,NW,315,5.0,-999.0,69,0.00,,,0.00,Wunderground v.1.15,2013-06-28 09:00:00,
2013-06-28 04:05:00,65.2,55.2,29.82,NW,315,4.0,-999.0,70,0.00,,,0.00,Wunderground v.1.15,2013-06-28 09:05:00,
2013-06-28 04:10:00,64.6,55.0,29.82,NW,315,4.0,-999.0,71,0.00,,,0.00,Wunderground v.1.15,2013-06-28 09:10:00,
2013-06-28 04:15:00,64.2,55.0,29.82,NW,315,4.0,-999.0,72,0.00,,,0.00,Wunderground v.1.15,2013-06-28 09:15:00,
2013-06-28 04:20:00,64.0,55.2,29.82,NW,315,4.0,-999.0,73,0.00,,,0.00,Wunderground v.1.15,2013-06-28 09:20:00,
2013-06-28 04:25:00,63.5,54.7,29.82,NW,315,3.0,-999.0,73,0.00,,,0.00,Wunderground v.1.15,2013-06-28 09:25:00,
2013-06-28 04:30:00,63.1,54.7,29.82,NW,315,2.0,-999.0,74,0.00,,,0.00,Wunderground v.1.15,2013-06-28 09:30:00,
2013-06-28 04:35:00,62.9,54.9,29.82,NW,315,3.0,-999.0,75,0.00,,,0.00,Wunderground v.1.15,2013-06-28 09:35:00,
2013-06-28 04:40:00,63.0,54.9,29.82,NW,315,3.0,-999.0,75,0.00,,,0.00,Wunderground v.1.15,2013-06-28 09:40:00,
2013-06-28 04:45:00,62.9,54.9,29.82,NW,315,3.0,-999.0,75,0.00,,,0.00,Wunderground v.1.15,2013-06-28 09:45:00,
2013-06-28 04:50:00,62.9,54.9,29.82,NW,315,4.0,-999.0,75,0.00,,,0.00,Wunderground v.1.15,2013-06-28 09:50:00,
2013-06-28 04:55:00,63.3,55.2,29.82,NW,315,4.0,-999.0,75,0.00,,,0.00,Wunderground v.1.15,2013-06-28 09:55:00,
2013-06-28 05:00:00,63.1,55.0,29.82,NW,315,3.0,-999.0,75,0.00,,,0.00,Wunderground v.1.15,2013-06-28 10:00:00,
2013-06-28 05:05:00,62.8,55.1,29.82,NW,315,3.0,-999.0,76,0.00,,,0.00,Wunderground v.1.15,2013-06-28 10:05:00,
2013-06-28 05:10:00,62.4,54.7,29.81,NW,315,2.0,-999.0,76,0.00,,,0.00,Wunderground v.1.15,2013-06-28 10:10:00,
2013-06-28 05:15:00,62.3,55.0,29.82,NW,315,2.0,-999.0,77,0.00,,,0.00,Wunderground v.1.15,2013-06-28 10:15:00,
2013-06-28 05:20:00,62.6,54.9,29.82,NW,315,4.0,-999.0,76,0.00,,,0.00,Wunderground v.1.15,2013-06-28 10:20:00,
2013-06-28 05:25:00,62.9,55.2,29.82,NW,315,5.0,-999.0,76,0.00,,,0.00,Wunderground v.1.15,2013-06-28 10:25:00,
2013-06-28 05:30:00,63.0,54.9,29.82,NW,315,5.0,-999.0,75,0.00,,,0.00,Wunderground v.1.15,2013-06-28 10:30:00,
2013-06-28 05:35:00,62.7,55.0,29.82,NW,315,5.0,-999.0,76,0.00,,,0.00,Wunderground v.1.15,2013-06-28 10:35:00,
2013-06-28 05:40:00,63.0,54.9,29.82,NW,315,5.0,-999.0,75,0.00,,,0.00,Wunderground v.1.15,2013-06-28 10:40:00,
2013-06-28 05:45:00,63.2,55.1,29.82,NW,315,5.0,-999.0,75,0.00,,,0.00,Wunderground v.1.15,2013-06-28 10:45:00,
2013-06-28 05:50:00,63.2,55.1,29.82,NW,315,4.0,-999.0,75,0.00,,,0.00,Wunderground v.1.15,2013-06-28 10:50:00,
2013-06-28 05:55:00,63.2,55.1,29.82,NW,315,5.0,-999.0,75,0.00,,,0.00,Wunderground v.1.15,2013-06-28 10:55:00,
2013-06-28 06:00:00,63.6,55.2,29.82,NW,315,5.0,-999.0,74,0.00,,,0.00,Wunderground v.1.15,2013-06-28 11:00:00,
2013-06-28 06:05:00,63.9,55.1,29.82,NW,315,5.0,-999.0,73,0.00,,,0.00,Wunderground v.1.15,2013-06-28 11:05:00,
2013-06-28 06:10:00,64.1,55.3,29.82,NW,315,5.0,-999.0,73,0.00,,,0.00,Wunderground v.1.15,2013-06-28 11:10:00,
2013-06-28 06:15:00,64.2,55.0,29.82,NW,315,5.0,-999.0,72,0.00,,,0.00,Wunderground v.1.15,2013-06-28 11:15:00,
2013-06-28 06:20:00,64.5,54.9,29.82,NW,315,6.0,-999.0,71,0.00,,,0.00,Wunderground v.1.15,2013-06-28 11:20:00,
2013-06-28 06:25:00,64.8,55.2,29.82,NW,315,6.0,-999.0,71,0.00,,,0.00,Wunderground v.1.15,2013-06-28 11:25:00,
2013-06-28 06:30:00,65.0,55.4,29.82,NW,315,6.0,-999.0,71,0.00,,,0.00,Wunderground v.1.15,2013-06-28 11:30:00,
2013-06-28 06:35:00,65.5,55.5,29.82,NW,315,7.0,-999.0,70,0.00,,,0.00,Wunderground v.1.15,2013-06-28 11:35:00,
2013-06-28 06:40:00,65.8,55.7,29.82,NW,315,7.0,-999.0,70,0.00,,,0.00,Wunderground v.1.15,2013-06-28 11:40:00,
2013-06-28 06:45:00,66.1,55.6,29.82,NW,315,7.0,-999.0,69,0.00,,,0.00,Wunderground v.1.15,2013-06-28 11:45:00,
2013-06-28 06:50:00,66.2,56.1,29.82,NW,315,6.0,-999.0,70,0.00,,,0.00,Wunderground v.1.15,2013-06-28 11:50:00,
2013-06-28 06:55:00,66.2,56.1,29.82,NW,315,6.0,-999.0,70,0.00,,,0.00,Wunderground v.1.15,2013-06-28 11:55:00,
2013-06-28 07:00:00,66.3,56.2,29.83,NW,315,6.0,-999.0,70,0.00,,,0.00,Wunderground v.1.15,2013-06-28 12:00:00,
2013-06-28 07:05:00,66.5,56.4,29.83,NW,315,7.0,-999.0,70,0.00,,,0.00,Wunderground v.1.15,2013-06-28 12:05:00,
2013-06-28 07:10:00,66.9,56.4,29.82,NW,315,8.0,-999.0,69,0.00,,,0.00,Wunderground v.1.15,2013-06-28 12:10:00,
2013-06-28 07:15:00,67.3,56.8,29.82,NW,315,7.0,-999.0,69,0.00,,,0.00,Wunderground v.1.15,2013-06-28 12:15:00,
2013-06-28 07:20:00,67.9,56.9,29.82,NW,315,7.0,-999.0,68,0.00,,,0.00,Wunderground v.1.15,2013-06-28 12:20:00,
2013-06-28 07:25:00,68.5,57.1,29.82,NW,315,8.0,-999.0,67,0.00,,,0.00,Wunderground v.1.15,2013-06-28 12:25:00,
2013-06-28 07:30:00,69.0,56.7,29.82,NW,315,9.0,-999.0,65,0.00,,,0.00,Wunderground v.1.15,2013-06-28 12:30:00,
2013-06-28 07:35:00,69.6,56.4,29.82,NW,315,10.0,-999.0,63,0.00,,,0.00,Wunderground v.1.15,2013-06-28 12:35:00,
2013-06-28 07:40:00,70.0,56.4,29.82,NW,315,10.0,-999.0,62,0.00,,,0.00,Wunderground v.1.15,2013-06-28 12:40:00,
2013-06-28 07:45:00,70.4,56.3,29.82,NW,315,11.0,-999.0,61,0.00,,,0.00,Wunderground v.1.15,2013-06-28 12:45:00,
2013-06-28 07:50:00,70.7,56.6,29.82,NW,315,12.0,-999.0,61,0.00,,,0.00,Wunderground v.1.15,2013-06-28 12:50:00,
2013-06-28 07:55:00,70.9,56.8,29.82,NW,315,11.0,-999.0,61,0.00,,,0.00,Wunderground v.1.15,2013-06-28 12:55:00,
2013-06-28 08:00:00,71.1,56.5,29.82,NW,315,13.0,-999.0,60,0.00,,,0.00,Wunderground v.1.15,2013-06-28 13:00:00,
2013-06-28 08:05:00,71.3,57.2,29.82,NW,315,11.0,-999.0,61,0.00,,,0.00,Wunderground v.1.15,2013-06-28 13:05:00,
2013-06-28 08:10:00,71.3,56.7,29.82,NW,315,11.0,-999.0,60,0.00,,,0.00,Wunderground v.1.15,2013-06-28 13:10:00,
2013-06-28 08:15:00,71.5,57.3,29.82,NW,315,11.0,-999.0,61,0.00,,,0.00,Wunderground v.1.15,2013-06-28 13:15:00,
2013-06-28 08:20:00,71.7,57.1,29.82,NW,315,12.0,-999.0,60,0.00,,,0.00,Wunderground v.1.15,2013-06-28 13:20:00,
2013-06-28 08:25:00,72.0,57.4,29.82,NW,315,10.0,-999.0,60,0.00,,,0.00,Wunderground v.1.15,2013-06-28 13:25:00,
2013-06-28 08:30:00,72.2,57.1,29.82,NW,315,12.0,-999.0,59,0.00,,,0.00,Wunderground v.1.15,2013-06-28 13:30:00,
2013-06-28 08:35:00,72.5,56.9,29.82,NW,315,11.0,-999.0,58,0.00,,,0.00,Wunderground v.1.15,2013-06-28 13:35:00,
2013-06-28 08:40:00,72.8,56.7,29.82,NW,315,11.0,-999.0,57,0.00,,,0.00,Wunderground v.1.15,2013-06-28 13:40:00,
2013-06-28 08:45:00,73.1,57.0,29.82,NW,315,11.0,-999.0,57,0.00,,,0.00,Wunderground v.1.15,2013-06-28 13:45:00,
2013-06-28 08:50:00,73.2,56.1,29.82,NW,315,13.0,-999.0,55,0.00,,,0.00,Wunderground v.1.15,2013-06-28 13:50:00,
2013-06-28 08:55:00,73.5,56.3,29.81,NW,315,13.0,-999.0,55,0.00,,,0.00,Wunderground v.1.15,2013-06-28 13:55:00,
2013-06-28 09:00:00,73.6,56.4,29.82,NW,315,12.0,-999.0,55,0.00,,,0.00,Wunderground v.1.15,2013-06-28 14:00:00,
2013-06-28 09:05:00,73.8,56.1,29.81,NW,315,14.0,-999.0,54,0.00,,,0.00,Wunderground v.1.15,2013-06-28 14:05:00,
2013-06-28 09:10:00,73.9,55.7,29.82,NW,315,14.0,-999.0,53,0.00,,,0.00,Wunderground v.1.15,2013-06-28 14:10:00,
2013-06-28 09:15:00,74.0,56.8,29.82,NW,315,13.0,-999.0,55,0.00,,,0.00,Wunderground v.1.15,2013-06-28 14:15:00,
2013-06-28 09:20:00,74.2,56.0,29.81,NW,315,16.0,-999.0,53,0.00,,,0.00,Wunderground v.1.15,2013-06-28 14:20:00,
2013-06-28 09:25:00,74.4,57.2,29.81,NW,315,13.0,-999.0,55,0.00,,,0.00,Wunderground v.1.15,2013-06-28 14:25:00,
2013-06-28 09:30:00,74.4,57.2,29.81,NW,315,13.0,-999.0,55,0.00,,,0.00,Wunderground v.1.15,2013-06-28 14:30:00,
2013-06-28 09:35:00,74.5,57.8,29.81,NW,315,13.0,-999.0,56,0.00,,,0.00,Wunderground v.1.15,2013-06-28 14:35:00,
2013-06-28 09:40:00,74.8,56.5,29.81,NW,315,14.0,-999.0,53,0.00,,,0.00,Wunderground v.1.15,2013-06-28 14:40:00,
2013-06-28 09:45:00,74.9,57.1,29.81,NW,315,14.0,-999.0,54,0.00,,,0.00,Wunderground v.1.15,2013-06-28 14:45:00,
2013-06-28 09:50:00,75.0,56.7,29.80,NW,315,16.0,-999.0,53,0.00,,,0.00,Wunderground v.1.15,2013-06-28 14:50:00,
2013-06-28 09:55:00,75.5,58.2,29.80,NW,315,13.0,-999.0,55,0.00,,,0.00,Wunderground v.1.15,2013-06-28 14:55:00,
2013-06-28 10:00:00,75.6,56.7,29.80,NW,315,16.0,-999.0,52,0.00,,,0.00,Wunderground v.1.15,2013-06-28 15:00:00,
2013-06-28 10:05:00,75.4,57.1,29.80,NW,315,17.0,-999.0,53,0.00,,,0.00,Wunderground v.1.15,2013-06-28 15:05:00,
2013-06-28 10:10:00,75.5,57.2,29.80,NW,315,16.0,-999.0,53,0.00,,,0.00,Wunderground v.1.15,2013-06-28 15:10:00,
2013-06-28 10:15:00,75.6,56.7,29.80,NW,315,17.0,-999.0,52,0.00,,,0.00,Wunderground v.1.15,2013-06-28 15:15:00,
2013-06-28 10:20:00,75.7,56.3,29.80,NW,315,20.0,-999.0,51,0.00,,,0.00,Wunderground v.1.15,2013-06-28 15:20:00,
2013-06-28 10:25:00,75.9,57.0,29.80,NW,315,17.0,-999.0,52,0.00,,,0.00,Wunderground v.1.15,2013-06-28 15:25:00,
2013-06-28 10:30:00,76.1,57.2,29.80,NW,315,16.0,-999.0,52,0.00,,,0.00,Wunderground v.1.15,2013-06-28 15:30:00,
2013-06-28 10:35:00,76.2,56.7,29.80,NW,315,17.0,-999.0,51,0.00,,,0.00,Wunderground v.1.15,2013-06-28 15:35:00,
2013-06-28 10:40:00,76.2,56.2,29.80,NW,315,18.0,-999.0,50,0.00,,,0.00,Wunderground v.1.15,2013-06-28 15:40:00,
2013-06-28 10:45:00,76.2,56.2,29.80,NW,315,20.0,-999.0,50,0.00,,,0.00,Wunderground v.1.15,2013-06-28 15:45:00,
2013-06-28 10:50:00,76.6,57.1,29.80,NW,315,16.0,-999.0,51,0.00,,,0.00,Wunderground v.1.15,2013-06-28 15:50:00,
2013-06-28 10:55:00,76.8,56.2,29.80,NW,315,17.0,-999.0,49,0.00,,,0.00,Wunderground v.1.15,2013-06-28 15:55:00,
2013-06-28 11:00:00,76.5,56.5,29.80,NW,315,18.0,-999.0,50,0.00,,,0.00,Wunderground v.1.15,2013-06-28 16:00:00,
2013-06-28 11:05:00,76.7,57.2,29.80,NW,315,15.0,-999.0,51,0.00,,,0.00,Wunderground v.1.15,2013-06-28 16:05:00,
2013-06-28 11:10:00,77.0,56.9,29.80,NW,315,18.0,-999.0,50,0.00,,,0.00,Wunderground v.1.15,2013-06-28 16:10:00,
2013-06-28 11:15:00,77.1,57.0,29.80,NW,315,19.0,-999.0,50,0.00,,,0.00,Wunderground v.1.15,2013-06-28 16:15:00,
2013-06-28 11:20:00,77.4,57.3,29.79,NW,315,15.0,-999.0,50,0.00,,,0.00,Wunderground v.1.15,2013-06-28 16:20:00,
2013-06-28 11:25:00,77.4,55.6,29.80,NW,315,21.0,-999.0,47,0.00,,,0.00,Wunderground v.1.15,2013-06-28 16:25:00,
2013-06-28 11:30:00,77.4,56.2,29.80,NW,315,18.0,-999.0,48,0.00,,,0.00,Wunderground v.1.15,2013-06-28 16:30:00,
2013-06-28 11:35:00,77.6,57.5,29.80,NW,315,16.0,-999.0,50,0.00,,,0.00,Wunderground v.1.15,2013-06-28 16:35:00,
2013-06-28 11:40:00,78.2,56.9,29.80,NW,315,14.0,-999.0,48,0.00,,,0.00,Wunderground v.1.15,2013-06-28 16:40:00,
2013-06-28 11:45:00,77.8,56.0,29.80,NW,315,19.0,-999.0,47,0.00,,,0.00,Wunderground v.1.15,2013-06-28 16:45:00,
2013-06-28 11:50:00,78.1,56.2,29.80,NW,315,20.0,-999.0,47,0.00,,,0.00,Wunderground v.1.15,2013-06-28 16:50:00,
2013-06-28 11:55:00,78.2,54.5,29.80,NW,315,19.0,-999.0,44,0.00,,,0.00,Wunderground v.1.15,2013-06-28 16:55:00,
2013-06-28 12:00:00,78.2,55.7,29.80,NW,315,21.0,-999.0,46,0.00,,,0.00,Wunderground v.1.15,2013-06-28 17:00:00,
2013-06-28 12:05:00,78.2,56.3,29.80,NW,315,19.0,-999.0,47,0.00,,,0.00,Wunderground v.1.15,2013-06-28 17:05:00,
2013-06-28 12:10:00,78.4,57.1,29.80,NW,315,15.0,-999.0,48,0.00,,,0.00,Wunderground v.1.15,2013-06-28 17:10:00,
2013-06-28 12:15:00,78.4,56.5,29.80,NW,315,19.0,-999.0,47,0.00,,,0.00,Wunderground v.1.15,2013-06-28 17:15:00,
2013-06-28 12:20:00,78.0,55.5,29.79,NW,315,19.0,-999.0,46,0.00,,,0.00,Wunderground v.1.15,2013-06-28 17:20:00,
2013-06-28 12:25:00,78.0,54.3,29.79,NW,315,20.0,-999.0,44,0.00,,,0.00,Wunderground v.1.15,2013-06-28 17:25:00,
2013-06-28 12:30:00,78.6,55.5,29.79,NW,315,17.0,-999.0,45,0.00,,,0.00,Wunderground v.1.15,2013-06-28 17:30:00,
2013-06-28 12:35:00,79.1,57.1,29.79,NW,315,16.0,-999.0,47,0.00,,,0.00,Wunderground v.1.15,2013-06-28 17:35:00,
2013-06-28 12:40:00,79.1,55.3,29.79,NW,315,18.0,-999.0,44,0.00,,,0.00,Wunderground v.1.15,2013-06-28 17:40:00,
2013-06-28 12:45:00,79.1,55.9,29.78,NW,315,14.0,-999.0,45,0.00,,,0.00,Wunderground v.1.15,2013-06-28 17:45:00,
2013-06-28 12:50:00,79.1,54.7,29.78,NW,315,16.0,-999.0,43,0.00,,,0.00,Wunderground v.1.15,2013-06-28 17:50:00,
2013-06-28 12:55:00,79.1,54.7,29.79,NW,315,18.0,-999.0,43,0.00,,,0.00,Wunderground v.1.15,2013-06-28 17:55:00,
2013-06-28 13:00:00,79.3,55.5,29.79,NW,315,18.0,-999.0,44,0.00,,,0.00,Wunderground v.1.15,2013-06-28 18:00:00,
2013-06-28 13:05:00,79.5,55.0,29.78,NW,315,15.0,-999.0,43,0.00,,,0.00,Wunderground v.1.15,2013-06-28 18:05:00,
2013-06-28 13:10:00,79.3,54.9,29.78,NW,315,15.0,-999.0,43,0.00,,,0.00,Wunderground v.1.15,2013-06-28 18:10:00,
2013-06-28 13:15:00,79.6,55.1,29.78,NW,315,15.0,-999.0,43,0.00,,,0.00,Wunderground v.1.15,2013-06-28 18:15:00,
2013-06-28 13:20:00,78.8,54.4,29.78,NW,315,14.0,-999.0,43,0.00,,,0.00,Wunderground v.1.15,2013-06-28 18:20:00,
2013-06-28 13:25:00,78.9,55.8,29.78,NW,315,15.0,-999.0,45,0.00,,,0.00,Wunderground v.1.15,2013-06-28 18:25:00,
2013-06-28 13:30:00,79.3,56.1,29.77,NW,315,15.0,-999.0,45,0.00,,,0.00,Wunderground v.1.15,2013-06-28 18:30:00,
2013-06-28 13:35:00,79.3,56.1,29.77,NW,315,14.0,-999.0,45,0.00,,,0.00,Wunderground v.1.15,2013-06-28 18:35:00,
2013-06-28 13:40:00,79.6,55.8,29.77,NW,315,19.0,-999.0,44,0.00,,,0.00,Wunderground v.1.15,2013-06-28 18:40:00,
2013-06-28 13:45:00,79.5,55.0,29.77,NW,315,17.0,-999.0,43,0.00,,,0.00,Wunderground v.1.15,2013-06-28 18:45:00,
2013-06-28 13:50:00,79.9,56.0,29.77,NW,315,22.0,-999.0,44,0.00,,,0.00,Wunderground v.1.15,2013-06-28 18:50:00,
2013-06-28 13:55:00,79.7,55.9,29.77,NW,315,19.0,-999.0,44,0.00,,,0.00,Wunderground v.1.15,2013-06-28 18:55:00,
2013-06-28 14:00:00,79.9,55.4,29.77,NW,315,20.0,-999.0,43,0.00,,,0.00,Wunderground v.1.15,2013-06-28 19:00:00,
2013-06-28 14:05:00,80.1,56.2,29.77,NW,315,22.0,-999.0,44,0.00,,,0.00,Wunderground v.1.15,2013-06-28 19:05:00,
2013-06-28 14:10:00,80.0,56.7,29.77,NW,315,17.0,-999.0,45,0.00,,,0.00,Wunderground v.1.15,2013-06-28 19:10:00,
2013-06-28 14:15:00,80.3,55.8,29.77,NW,315,19.0,-999.0,43,0.00,,,0.00,Wunderground v.1.15,2013-06-28 19:15:00,
2013-06-28 14:20:00,80.6,55.4,29.77,NW,315,20.0,-999.0,42,0.00,,,0.00,Wunderground v.1.15,2013-06-28 19:20:00,
2013-06-28 14:25:00,80.5,56.6,29.77,NW,315,20.0,-999.0,44,0.00,,,0.00,Wunderground v.1.15,2013-06-28 19:25:00,
2013-06-28 14:30:00,80.1,56.8,29.76,NW,315,12.0,-999.0,45,0.00,,,0.00,Wunderground v.1.15,2013-06-28 19:30:00,
2013-06-28 14:35:00,79.7,55.2,29.77,NW,315,18.0,-999.0,43,0.00,,,0.00,Wunderground v.1.15,2013-06-28 19:35:00,
2013-06-28 14:40:00,80.4,57.1,29.77,NW,315,18.0,-999.0,45,0.00,,,0.00,Wunderground v.1.15,2013-06-28 19:40:00,
2013-06-28 14:45:00,80.6,57.9,29.76,NW,315,12.0,-999.0,46,0.00,,,0.00,Wunderground v.1.15,2013-06-28 19:45:00,
2013-06-28 14:50:00,79.7,57.7,29.77,NW,315,16.0,-999.0,47,0.00,,,0.00,Wunderground v.1.15,2013-06-28 19:50:00,
2013-06-28 14:55:00,80.2,57.5,29.77,NW,315,14.0,-999.0,46,0.00,,,0.00,Wunderground v.1.15,2013-06-28 19:55:00,
2013-06-28 15:00:00,79.7,57.1,29.77,NW,315,12.0,-999.0,46,0.00,,,0.00,Wunderground v.1.15,2013-06-28 20:00:00,
2013-06-28 15:05:00,79.6,57.6,29.77,NW,315,15.0,-999.0,47,0.00,,,0.00,Wunderground v.1.15,2013-06-28 20:05:00,
2013-06-28 15:10:00,79.9,59.0,29.77,NW,315,13.0,-999.0,49,0.00,,,0.00,Wunderground v.1.15,2013-06-28 20:10:00,
2013-06-28 15:15:00,80.2,60.4,29.77,NW,315,8.0,-999.0,51,0.00,,,0.00,Wunderground v.1.15,2013-06-28 20:15:00,
2013-06-28 15:20:00,78.7,57.9,29.77,NW,315,14.0,-999.0,49,0.00,,,0.00,Wunderground v.1.15,2013-06-28 20:20:00,
2013-06-28 15:25:00,79.3,57.9,29.77,NW,315,15.0,-999.0,48,0.00,,,0.00,Wunderground v.1.15,2013-06-28 20:25:00,
2013-06-28 15:30:00,80.0,60.2,29.77,NW,315,13.0,-999.0,51,0.00,,,0.00,Wunderground v.1.15,2013-06-28 20:30:00,
2013-06-28 15:35:00,80.2,59.3,29.77,NW,315,18.0,-999.0,49,0.00,,,0.00,Wunderground v.1.15,2013-06-28 20:35:00,
2013-06-28 15:40:00,80.4,58.3,29.77,NW,315,16.0,-999.0,47,0.00,,,0.00,Wunderground v.1.15,2013-06-28 20:40:00,
2013-06-28 15:45:00,79.9,57.9,29.76,NW,315,17.0,-999.0,47,0.00,,,0.00,Wunderground v.1.15,2013-06-28 20:45:00,
2013-06-28 15:50:00,79.0,57.0,29.76,NW,315,14.0,-999.0,47,0.00,,,0.00,Wunderground v.1.15,2013-06-28 20:50:00,
2013-06-28 15:55:00,79.6,58.8,29.77,NW,315,15.0,-999.0,49,0.00,,,0.00,Wunderground v.1.15,2013-06-28 20:55:00,
2013-06-28 16:00:00,79.8,60.1,29.76,NW,315,11.0,-999.0,51,0.00,,,0.00,Wunderground v.1.15,2013-06-28 21:00:00,
2013-06-28 16:05:00,79.9,57.3,29.77,NW,315,19.0,-999.0,46,0.00,,,0.00,Wunderground v.1.15,2013-06-28 21:05:00,
2013-06-28 16:10:00,79.9,59.0,29.77,NW,315,16.0,-999.0,49,0.00,,,0.00,Wunderground v.1.15,2013-06-28 21:10:00,
2013-06-28 16:15:00,80.0,59.1,29.77,NW,315,15.0,-999.0,49,0.00,,,0.00,Wunderground v.1.15,2013-06-28 21:15:00,
2013-06-28 16:20:00,79.6,58.8,29.77,NW,315,12.0,-999.0,49,0.00,,,0.00,Wunderground v.1.15,2013-06-28 21:20:00,
2013-06-28 16:25:00,79.6,58.2,29.77,NW,315,15.0,-999.0,48,0.00,,,0.00,Wunderground v.1.15,2013-06-28 21:25:00,
2013-06-28 16:30:00,79.6,59.3,29.77,NW,309,13.0,13.0,50,0.00,,,0.00,Wunderground v.1.15,2013-06-28 21:30:00,
2013-06-28 16:35:00,79.4,58.6,29.76,NW,311,13.0,20.0,49,0.00,,,0.00,Wunderground v.1.15,2013-06-28 21:35:00,
2013-06-28 16:40:00,78.9,58.1,29.76,NW,315,15.0,15.0,49,0.00,,,0.00,Wunderground v.1.15,2013-06-28 21:40:00,
2013-06-28 16:45:00,78.4,58.2,29.76,NNW,327,21.0,26.0,50,0.00,,,0.00,Wunderground v.1.15,2013-06-28 21:45:00,
2013-06-28 16:50:00,79.0,58.2,29.76,NW,321,11.0,16.0,49,0.00,,,0.00,Wunderground v.1.15,2013-06-28 21:50:00,
2013-06-28 16:55:00,79.7,59.4,29.77,NNW,334,15.0,21.0,50,0.00,,,0.00,Wunderground v.1.15,2013-06-28 21:55:00,
2013-06-28 17:00:00,78.2,58.0,29.77,NNW,333,16.0,16.0,50,0.00,,,0.00,Wunderground v.1.15,2013-06-28 22:00:00,
2013-06-28 17:05:00,78.7,58.5,29.77,NW,325,24.0,24.0,50,0.00,,,0.00,Wunderground v.1.15,2013-06-28 22:05:00,
2013-06-28 17:10:00,79.1,58.9,29.77,NW,321,11.0,18.0,50,0.00,,,0.00,Wunderground v.1.15,2013-06-28 22:10:00,
2013-06-28 17:15:00,79.4,58.6,29.77,NW,321,12.0,22.0,49,0.00,,,0.00,Wunderground v.1.15,2013-06-28 22:15:00,
2013-06-28 17:20:00,79.2,57.8,29.76,NW,321,19.0,24.0,48,0.00,,,0.00,Wunderground v.1.15,2013-06-28 22:20:00,
2013-06-28 17:25:00,79.4,58.6,29.77,NNW,332,19.0,24.0,49,0.00,,,0.00,Wunderground v.1.15,2013-06-28 22:25:00,
2013-06-28 17:30:00,79.3,59.6,29.76,NNW,341,2.0,14.0,51,0.00,,,0.00,Wunderground v.1.15,2013-06-28 22:30:00,
2013-06-28 17:35:00,79.4,59.7,29.76,NW,313,5.0,18.0,51,0.00,,,0.00,Wunderground v.1.15,2013-06-28 22:35:00,
2013-06-28 17:40:00,79.6,61.0,29.76,NNW,343,4.0,18.0,53,0.00,,,0.00,Wunderground v.1.15,2013-06-28 22:40:00,
2013-06-28 17:45:00,79.6,60.4,29.76,NW,309,17.0,18.0,52,0.00,,,0.00,Wunderground v.1.15,2013-06-28 22:45:00,
2013-06-28 17:50:00,78.5,59.4,29.76,NW,323,6.0,9.0,52,0.00,,,0.00,Wunderground v.1.15,2013-06-28 22:50:00,
2013-06-28 17:56:00,78.8,59.7,29.76,NW,313,10.0,17.0,52,0.00,,,0.00,Wunderground v.1.15,2013-06-28 22:56:00,
2013-06-28 18:01:00,79.3,60.7,29.76,NW,325,6.0,19.0,53,0.00,,,0.00,Wunderground v.1.15,2013-06-28 23:01:00,
2013-06-28 18:06:00,79.3,60.1,29.76,NNW,330,13.0,20.0,52,0.00,,,0.00,Wunderground v.1.15,2013-06-28 23:06:00,
2013-06-28 18:11:00,78.8,59.7,29.76,NW,306,11.0,14.0,52,0.00,,,0.00,Wunderground v.1.15,2013-06-28 23:11:00,
2013-06-28 18:16:00,78.7,60.1,29.75,NNW,342,5.0,17.0,53,0.00,,,0.00,Wunderground v.1.15,2013-06-28 23:16:00,
2013-06-28 18:21:00,78.5,59.4,29.76,NW,313,15.0,18.0,52,0.00,,,0.00,Wunderground v.1.15,2013-06-28 23:21:00,
2013-06-28 18:26:00,78.0,58.9,29.76,NNW,329,18.0,21.0,52,0.00,,,0.00,Wunderground v.1.15,2013-06-28 23:26:00,
2013-06-28 18:31:00,77.8,58.8,29.76,NW,320,17.0,18.0,52,0.00,,,0.00,Wunderground v.1.15,2013-06-28 23:31:00,
2013-06-28 18:36:00,77.6,58.6,29.75,NW,317,25.0,25.0,52,0.00,,,0.00,Wunderground v.1.15,2013-06-28 23:36:00,
2013-06-28 18:41:00,77.6,59.1,29.76,NW,313,6.0,13.0,53,0.00,,,0.00,Wunderground v.1.15,2013-06-28 23:41:00,
2013-06-28 18:46:00,77.6,58.6,29.76,WNW,296,18.0,25.0,52,0.00,,,0.00,Wunderground v.1.15,2013-06-28 23:46:00,
2013-06-28 18:51:00,77.6,58.6,29.75,NNW,336,13.0,24.0,52,0.00,,,0.00,Wunderground v.1.15,2013-06-28 23:51:00,
2013-06-28 18:56:00,77.6,58.6,29.75,NW,322,5.0,24.0,52,0.00,,,0.00,Wunderground v.1.15,2013-06-28 23:56:00,
2013-06-28 19:01:00,77.5,58.5,29.76,NNW,336,15.0,19.0,52,0.00,,,0.00,Wunderground v.1.15,2013-06-29 00:01:00,
2013-06-28 19:06:00,77.3,58.3,29.75,NW,318,9.0,23.0,52,0.00,,,0.00,Wunderground v.1.15,2013-06-29 00:06:00,
2013-06-28 19:11:00,76.1,57.7,29.76,NW,321,11.0,16.0,53,0.00,,,0.00,Wunderground v.1.15,2013-06-29 00:11:00,
2013-06-28 19:16:00,76.1,58.8,29.75,NNW,327,4.0,16.0,55,0.00,,,0.00,Wunderground v.1.15,2013-06-29 00:16:00,
2013-06-28 19:21:00,76.2,58.3,29.76,NW,309,13.0,14.0,54,0.00,,,0.00,Wunderground v.1.15,2013-06-29 00:21:00,
2013-06-28 19:26:00,76.0,58.7,29.75,NNW,328,2.0,20.0,55,0.00,,,0.00,Wunderground v.1.15,2013-06-29 00:26:00,
2013-06-28 19:31:00,76.1,58.2,29.76,NW,312,9.0,15.0,54,0.00,,,0.00,Wunderground v.1.15,2013-06-29 00:31:00,
2013-06-28 19:36:00,76.0,58.7,29.76,NNW,332,11.0,17.0,55,0.00,,,0.00,Wunderground v.1.15,2013-06-29 00:36:00,
2013-06-28 19:41:00,75.8,57.4,29.76,NNW,336,5.0,20.0,53,0.00,,,0.00,Wunderground v.1.15,2013-06-29 00:41:00,
2013-06-28 19:46:00,75.4,58.1,29.75,NW,316,6.0,20.0,55,0.00,,,0.00,Wunderground v.1.15,2013-06-29 00:46:00,
2013-06-28 19:51:00,75.3,58.5,29.76,NW,321,11.0,12.0,56,0.00,,,0.00,Wunderground v.1.15,2013-06-29 00:51:00,
2013-06-28 19:56:00,75.1,58.3,29.76,NW,314,13.0,13.0,56,0.00,,,0.00,Wunderground v.1.15,2013-06-29 00:56:00,
2013-06-28 20:01:00,75.2,57.4,29.76,NW,317,9.0,13.0,54,0.00,,,0.00,Wunderground v.1.15,2013-06-29 01:01:00,
2013-06-28 20:06:00,75.1,57.8,29.75,NW,318,18.0,18.0,55,0.00,,,0.00,Wunderground v.1.15,2013-06-29 01:06:00,
2013-06-28 20:11:00,74.9,57.1,29.75,NNW,341,10.0,13.0,54,0.00,,,0.00,Wunderground v.1.15,2013-06-29 01:11:00,
2013-06-28 20:16:00,74.9,57.1,29.75,NW,317,11.0,19.0,54,0.00,,,0.00,Wunderground v.1.15,2013-06-29 01:16:00,
2013-06-28 20:21:00,74.7,56.9,29.76,NW,309,10.0,20.0,54,0.00,,,0.00,Wunderground v.1.15,2013-06-29 01:21:00,
2013-06-28 20:26:00,74.6,56.9,29.76,NW,316,11.0,20.0,54,0.00,,,0.00,Wunderground v.1.15,2013-06-29 01:26:00,
2013-06-28 20:31:00,74.2,57.0,29.75,NW,315,7.0,17.0,55,0.00,,,0.00,Wunderground v.1.15,2013-06-29 01:31:00,
2013-06-28 20:37:00,74.2,57.0,29.75,NNW,337,11.0,17.0,55,0.00,,,0.00,Wunderground v.1.15,2013-06-29 01:37:00,
2013-06-28 20:42:00,73.8,57.1,29.76,NNW,331,10.0,13.0,56,0.00,,,0.00,Wunderground v.1.15,2013-06-29 01:42:00,
2013-06-28 20:47:00,73.6,57.4,29.76,NW,320,6.0,13.0,57,0.00,,,0.00,Wunderground v.1.15,2013-06-29 01:47:00,
2013-06-28 20:52:00,73.5,56.8,29.76,NW,319,10.0,13.0,56,0.00,,,0.00,Wunderground v.1.15,2013-06-29 01:52:00,
2013-06-28 20:57:00,73.2,57.1,29.76,NW,321,10.0,13.0,57,0.00,,,0.00,Wunderground v.1.15,2013-06-29 01:57:00,
2013-06-28 21:02:00,72.7,57.1,29.76,NW,319,8.0,12.0,58,0.00,,,0.00,Wunderground v.1.15,2013-06-29 02:02:00,
2013-06-28 21:07:00,72.6,57.0,29.76,NW,319,6.0,12.0,58,0.00,,,0.00,Wunderground v.1.15,2013-06-29 02:07:00,
2013-06-28 21:12:00,72.5,56.9,29.75,NW,322,7.0,12.0,58,0.00,,,0.00,Wunderground v.1.15,2013-06-29 02:12:00,
2013-06-28 21:17:00,72.4,56.8,29.76,NW,309,10.0,12.0,58,0.00,,,0.00,Wunderground v.1.15,2013-06-29 02:17:00,
2013-06-28 21:23:00,72.1,57.0,29.76,NW,326,11.0,11.0,59,0.00,,,0.00,Wunderground v.1.15,2013-06-29 02:23:00,
2013-06-28 21:28:00,72.1,57.0,29.76,NW,322,6.0,13.0,59,0.00,,,0.00,Wunderground v.1.15,2013-06-29 02:28:00,
2013-06-28 21:33:00,71.8,57.2,29.76,NW,318,8.0,9.0,60,0.00,,,0.00,Wunderground v.1.15,2013-06-29 02:33:00,
2013-06-28 21:38:00,71.6,57.4,29.76,NW,317,5.0,11.0,61,0.00,,,0.00,Wunderground v.1.15,2013-06-29 02:38:00,
2013-06-28 21:43:00,71.3,57.2,29.76,NW,318,3.0,7.0,61,0.00,,,0.00,Wunderground v.1.15,2013-06-29 02:43:00,
2013-06-28 21:48:00,71.0,57.3,29.76,NW,319,3.0,9.0,62,0.00,,,0.00,Wunderground v.1.15,2013-06-29 02:48:00,
2013-06-28 21:53:00,70.7,57.0,29.76,NW,319,2.0,5.0,62,0.00,,,0.00,Wunderground v.1.15,2013-06-29 02:53:00,
2013-06-28 21:58:00,70.4,57.2,29.76,NW,319,5.0,7.0,63,0.00,,,0.00,Wunderground v.1.15,2013-06-29 02:58:00,
2013-06-28 22:03:00,70.1,56.9,29.76,NW,319,3.0,7.0,63,0.00,,,0.00,Wunderground v.1.15,2013-06-29 03:03:00,
2013-06-28 22:08:00,69.8,57.1,29.76,NW,319,4.0,7.0,64,0.00,,,0.00,Wunderground v.1.15,2013-06-29 03:08:00,
2013-06-28 22:13:00,69.4,57.1,29.76,NW,319,5.0,7.0,65,0.00,,,0.00,Wunderground v.1.15,2013-06-29 03:13:00,
2013-06-28 22:18:00,69.2,57.4,29.76,NW,319,4.0,8.0,66,0.00,,,0.00,Wunderground v.1.15,2013-06-29 03:18:00,
2013-06-28 22:23:00,68.9,57.5,29.76,NW,319,3.0,6.0,67,0.00,,,0.00,Wunderground v.1.15,2013-06-29 03:23:00,
2013-06-28 22:28:00,68.8,57.4,29.76,NW,319,6.0,6.0,67,0.00,,,0.00,Wunderground v.1.15,2013-06-29 03:28:00,
2013-06-28 22:33:00,68.8,57.4,29.76,NW,319,5.0,6.0,67,0.00,,,0.00,Wunderground v.1.15,2013-06-29 03:33:00,
2013-06-28 22:38:00,68.6,57.2,29.76,NW,321,7.0,7.0,67,0.00,,,0.00,Wunderground v.1.15,2013-06-29 03:38:00,
2013-06-28 22:43:00,68.7,57.3,29.76,NW,321,4.0,6.0,67,0.00,,,0.00,Wunderground v.1.15,2013-06-29 03:43:00,
2013-06-28 22:48:00,68.6,57.6,29.76,NW,320,3.0,9.0,68,0.00,,,0.00,Wunderground v.1.15,2013-06-29 03:48:00,
2013-06-28 22:53:00,68.6,57.6,29.76,NW,323,5.0,8.0,68,0.00,,,0.00,Wunderground v.1.15,2013-06-29 03:53:00,
2013-06-28 22:58:00,68.4,57.4,29.76,NW,322,4.0,8.0,68,0.00,,,0.00,Wunderground v.1.15,2013-06-29 03:58:00,
2013-06-28 23:01:00,68.3,57.7,29.76,NW,322,5.0,7.0,69,0.00,,,0.00,Wunderground v.1.15,2013-06-29 04:01:00,
2013-06-28 23:02:00,68.2,57.6,29.76,NW,322,5.0,7.0,69,0.00,,,0.00,Wunderground v.1.15,2013-06-29 04:02:00,
2013-06-28 23:07:00,67.8,57.3,29.76,NW,322,3.0,7.0,69,0.00,,,0.00,Wunderground v.1.15,2013-06-29 04:07:00,
2013-06-28 23:12:00,67.4,57.3,29.76,NW,322,3.0,6.0,70,0.00,,,0.00,Wunderground v.1.15,2013-06-29 04:12:00,
2013-06-28 23:17:00,66.6,56.9,29.76,NW,322,2.0,6.0,71,0.00,,,0.00,Wunderground v.1.15,2013-06-29 04:17:00,
2013-06-28 23:22:00,65.8,56.9,29.76,NW,322,4.0,4.0,73,0.00,,,0.00,Wunderground v.1.15,2013-06-29 04:22:00,
2013-06-28 23:27:00,65.4,56.9,29.76,NW,322,4.0,5.0,74,0.00,,,0.00,Wunderground v.1.15,2013-06-29 04:27:00,
2013-06-28 23:32:00,65.4,56.9,29.76,NW,322,3.0,5.0,74,0.00,,,0.00,Wunderground v.1.15,2013-06-29 04:32:00,
2013-06-28 23:37:00,65.2,56.7,29.76,NW,322,5.0,5.0,74,0.00,,,0.00,Wunderground v.1.15,2013-06-29 04:37:00,
2013-06-28 23:42:00,65.1,57.0,29.75,NW,322,5.0,6.0,75,0.00,,,0.00,Wunderground v.1.15,2013-06-29 04:42:00,
2013-06-28 23:47:00,65.5,57.4,29.75,NW,322,5.0,7.0,75,0.00,,,0.00,Wunderground v.1.15,2013-06-29 04:47:00,
2013-06-28 23:52:00,65.8,57.3,29.75,NW,321,6.0,7.0,74,0.00,,,0.00,Wunderground v.1.15,2013-06-29 04:52:00,
2013-06-28 23:58:00,65.8,57.3,29.75,NW,321,4.0,7.0,74,0.00,,,0.00,Wunderground v.1.15,2013-06-29 04:58:00,